Powrót do katalogu

COSMOS 374 DEB

AktywnyLEO
NORAD 18517·DEBRIS·🇷🇺 Russia

Wystrzelony Oct 23, 1970 z Baikonur Cosmodrome

Loading…

Następne Przeloty (najbliższe 24 godziny)

TLE

ŚwieżeSource: Space-Track

Epoka: Sep 14, 2026, 07:27 UTC

1 18517U 70089DD  26257.31086865  .00003980  00000-0  53361-3 0  9996
2 18517  62.3820 159.8934 0258014 217.3772 140.9112 14.60484966886999

Śledź COSMOS 374 DEB w czasie rzeczywistym z AllMySat

Download on the App Store